FW7772 Weather Reports


Display with metric or nautical units.
time (UTC)temp
F
wind
direction
speed
MPH
gust
MPH
rain 1hr
in
rain 24hr
in
rain mn
in
humidity
%
barometer
mb
20260902202829 47 239 0.0 3.0 0.00 0.00 0.00 82 1004.4
20260902201829 47 261 0.0 0.0 0.00 0.00 0.00 82 1004.6
20260902200829 48 261 0.0 0.0 0.00 0.00 0.00 81 1004.6
20260902200308 49 261 0.0 0.0 0.00 0.00 0.00 80 1004.5
20260902194830 49 261 0.0 0.0 0.00 0.00 0.00 80 1004.6
20260902193828 50 261 0.0 0.0 0.00 0.00 0.00 79 1004.5
20260902193306 50 261 0.0 0.0 0.00 0.00 0.00 78 1004.5
20260902191828 51 261 1.0 3.0 0.00 0.00 0.00 76 1004.5
20260902190829 52 261 1.0 3.0 0.00 0.00 0.00 76 1004.4
20260902185830 53 261 2.0 3.0 0.00 0.00 0.00 76 1004.4
20260902184829 54 261 2.0 3.0 0.00 0.00 0.00 74 1004.5
20260902183829 55 261 2.0 4.0 0.00 0.00 0.00 72 1004.4
20260902182831 56 259 3.0 4.0 0.00 0.00 0.00 70 1004.3
20260902181829 57 262 2.0 4.0 0.00 0.00 0.00 68 1004.4
20260902180829 58 241 2.0 4.0 0.00 0.00 0.00 66 1004.3
20260902175828 60 257 2.0 5.0 0.00 0.00 0.00 63 1004.3
20260902174822 60 264 3.0 8.0 0.00 0.00 0.00 60 1004.2
20260902173820 60 243 3.0 7.0 0.00 0.00 0.00 59 1004.3
20260902173312 61 220 5.0 11.0 0.00 0.00 0.00 54 1004.2
20260902171817 61 220 6.0 12.0 0.00 0.00 0.00 54 1004.3
20260902170818 62 255 7.0 16.0 0.00 0.00 0.00 52 1004.2
20260902165818 62 278 5.0 12.0 0.00 0.00 0.00 56 1004.3
20260902164818 62 243 5.0 13.0 0.00 0.00 0.00 54 1004.2
20260902163820 63 227 5.0 9.0 0.00 0.00 0.00 55 1004.1
20260902162817 63 247 7.0 16.0 0.00 0.00 0.00 52 1004.1
20260902161816 63 257 6.0 14.0 0.00 0.00 0.00 54 1004.0
20260902160816 64 264 6.0 12.0 0.00 0.00 0.00 53 1004.1
20260902155816 64 268 8.0 16.0 0.00 0.00 0.00 51 1004.1
20260902154816 64 300 8.0 17.0 0.00 0.00 0.00 50 1004.1
20260902153816 65 212 10.0 19.0 0.00 0.00 0.00 51 1004.1
20260902152817 65 295 8.0 17.0 0.00 0.00 0.00 51 1004.0
20260902151816 66 230 7.0 18.0 0.00 0.00 0.00 49 1003.9
20260902151255 66 269 7.0 13.0 0.00 0.00 0.00 53 1003.9
20260902145813 65 256 6.0 12.0 0.00 0.00 0.00 53 1003.9
20260902144813 67 245 5.0 14.0 0.00 0.00 0.00 55 1003.8
20260902144255 65 266 5.0 10.0 0.00 0.00 0.00 57 1004.0
20260902142814 66 246 7.0 17.0 0.00 0.00 0.00 54 1004.1
20260902141814 66 300 9.0 15.0 0.00 0.00 0.00 54 1004.0
20260902140816 65 246 8.0 14.0 0.00 0.00 0.00 56 1004.1
20260902135814 65 290 8.0 14.0 0.00 0.00 0.00 58 1004.1
20260902134808 65 214 6.0 16.0 0.00 0.00 0.00 52 1004.1
20260902133808 65 200 4.0 15.0 0.00 0.00 0.00 53 1003.9
20260902132809 66 240 6.0 13.0 0.00 0.00 0.00 53 1004.0
20260902132256 67 272 5.0 14.0 0.00 0.00 0.00 51 1004.0
20260902130807 67 262 5.0 13.0 0.00 0.00 0.00 53 1004.0
20260902125807 67 267 7.0 14.0 0.00 0.00 0.00 52 1004.0
20260902124807 67 273 7.0 18.0 0.00 0.00 0.00 52 1004.0
20260902123808 67 227 8.0 16.0 0.00 0.00 0.00 53 1004.1
20260902123242 67 210 9.0 17.0 0.00 0.00 0.00 56 1004.2
20260902121805 67 282 7.0 13.0 0.00 0.00 0.00 55 1004.2
20260902120805 66 224 6.0 14.0 0.00 0.00 0.00 57 1004.2
20260902115806 67 184 7.0 16.0 0.00 0.00 0.00 58 1004.3
20260902114806 67 310 5.0 13.0 0.00 0.00 0.00 57 1004.4
20260902113803 64 354 5.0 15.0 0.00 0.00 0.00 66 1004.5
20260902112803 62 237 2.0 11.0 0.00 0.00 0.00 71 1004.6
20260902111803 62 131 1.0 3.0 0.00 0.00 0.00 76 1004.7
20260902110803 62 243 1.0 4.0 0.00 0.00 0.00 79 1004.9
20260902105804 61 110 4.0 9.0 0.00 0.00 0.00 80 1004.9
20260902104803 62 102 4.0 7.0 0.00 0.00 0.00 83 1005.1
20260902103804 62 101 3.0 6.0 0.00 0.00 0.00 83 1005.2
20260902102802 61 122 4.0 6.0 0.00 0.00 0.00 85 1005.2
20260902101801 60 126 3.0 6.0 0.00 0.00 0.00 86 1005.2
20260902100801 60 104 3.0 7.0 0.00 0.00 0.00 86 1005.2
20260902095802 59 89 3.0 6.0 0.00 0.00 0.00 86 1005.2
20260902094802 59 102 1.0 4.0 0.00 0.00 0.00 87 1005.3
20260902093804 59 79 3.0 5.0 0.00 0.00 0.00 86 1005.3
20260902092801 58 104 2.0 6.0 0.00 0.00 0.00 86 1005.3
20260902092243 58 102 1.0 4.0 0.00 0.00 0.00 87 1005.4
20260902090801 58 79 0.0 3.0 0.00 0.00 0.00 87 1005.4
20260902085801 58 111 1.0 4.0 0.00 0.00 0.00 88 1005.4
20260902084802 57 94 2.0 4.0 0.00 0.00 0.00 89 1005.5
20260902083802 58 104 2.0 5.0 0.00 0.00 0.00 87 1005.5
20260902082802 59 63 2.0 6.0 0.00 0.00 0.00 88 1005.6
20260902081806 57 111 3.0 6.0 0.00 0.00 0.00 90 1005.7
20260902080801 56 112 2.0 6.0 0.00 0.00 0.00 91 1005.7
20260902075801 56 107 0.0 5.0 0.00 0.00 0.00 91 1005.7
20260902074804 55 98 1.0 4.0 0.00 0.00 0.00 91 1005.7
20260902073802 55 99 0.0 4.0 0.00 0.00 0.00 92 1005.7
20260902072802 55 310 0.0 0.0 0.00 0.00 0.00 94 1005.7
20260902071754 53 310 0.0 0.0 0.00 0.00 0.00 94 1005.7
20260902070753 51 310 0.0 0.0 0.00 0.00 0.00 94 1005.7
20260902070717 51 310 0.0 0.0 0.00 0.00 0.00 94 1005.7
20260902064751 50 310 0.0 0.0 0.00 0.00 0.00 94 1005.8
20260902063748 49 310 0.0 0.0 0.00 0.00 0.00 94 1005.7
20260902062748 49 310 0.0 0.0 0.00 0.00 0.00 94 1005.7
20260902060749 47 310 0.0 0.0 0.00 0.00 0.00 94 1006.0
20260902055749 47 310 0.0 0.0 0.00 0.00 0.00 94 1006.0
20260902054749 47 310 0.0 0.0 0.00 0.00 0.00 94 1006.0
20260902053747 46 310 0.0 0.0 0.00 0.00 0.00 93 1006.0
20260902053704 46 310 0.0 0.0 0.00 0.00 0.00 93 1006.0
20260902051744 45 310 0.0 0.0 0.00 0.00 0.00 93 1006.0
20260902050744 45 310 0.0 0.0 0.00 0.00 0.00 93 1006.0
20260902050708 45 310 0.0 0.0 0.00 0.00 0.00 93 1006.1
20260902044744 44 310 0.0 0.0 0.00 0.00 0.00 93 1006.0
20260902043746 44 310 0.0 0.0 0.00 0.00 0.00 92 1006.1
20260902043220 44 310 0.0 0.0 0.00 0.00 0.00 92 1006.1
20260902041744 43 310 0.0 0.0 0.00 0.00 0.00 92 1006.1
20260902040744 43 310 0.0 0.0 0.00 0.00 0.00 91 1006.1
20260902035743 43 270 0.0 0.0 0.00 0.00 0.00 91 1006.2
20260902034743 43 270 0.0 2.0 0.00 0.00 0.00 90 1006.3
20260902033742 43 340 0.0 0.0 0.00 0.00 0.00 90 1006.3
20260902032743 44 340 0.0 0.0 0.00 0.00 0.00 90 1006.2
20260902031740 44 340 0.0 0.0 0.00 0.00 0.00 91 1006.2
20260902030740 44 340 1.0 3.0 0.00 0.00 0.00 91 1006.1
20260902025741 44 340 1.0 3.0 0.00 0.00 0.00 90 1006.2
20260902024741 45 340 1.0 2.0 0.00 0.00 0.00 91 1006.2
20260902023741 45 340 0.0 2.0 0.00 0.00 0.00 90 1006.2
20260902022740 45 340 0.0 1.0 0.00 0.00 0.00 91 1006.2
20260902021740 45 340 0.0 2.0 0.00 0.00 0.00 91 1006.3
20260902020740 46 340 1.0 3.0 0.00 0.00 0.00 91 1006.5
20260902020210 46 340 1.0 3.0 0.00 0.00 0.00 91 1006.5
20260902014738 46 340 1.0 3.0 0.00 0.00 0.00 91 1006.4
20260902013742 46 340 1.0 2.0 0.00 0.00 0.00 91 1006.5
20260902012733 46 340 2.0 3.0 0.00 0.00 0.00 91 1006.5
20260902011732 47 340 1.0 3.0 0.00 0.00 0.00 91 1006.5
20260902010732 47 340 0.0 0.0 0.00 0.00 0.00 91 1006.6
20260902005734 47 340 0.0 1.0 0.00 0.00 0.00 90 1006.7
20260902004732 48 340 1.0 1.0 0.00 0.00 0.00 91 1006.8
20260902003734 48 340 0.0 2.0 0.00 0.00 0.00 91 1006.8
20260902002732 48 340 1.0 2.0 0.00 0.00 0.00 91 1006.8
20260902001732 48 340 0.0 1.0 0.00 0.00 0.00 91 1007.0
20260902001210 49 340 1.0 2.0 0.00 0.00 0.00 91 1007.0
20260901235731 49 340 1.0 3.0 0.00 0.00 0.00 91 1007.0
20260901234732 49 340 1.0 4.0 0.00 0.00 0.00 91 1007.0
20260901233730 49 322 0.0 0.0 0.00 0.00 0.00 91 1007.1
20260901232732 49 322 0.0 2.0 0.00 0.00 0.00 91 1007.0
20260901231731 49 322 0.0 2.0 0.00 0.00 0.00 91 1007.1
20260901231214 49 322 2.0 4.0 0.00 0.00 0.00 91 1007.1
20260901225731 49 310 1.0 3.0 0.00 0.00 0.00 91 1007.2
20260901224730 49 310 1.0 2.0 0.00 0.00 0.00 91 1007.3
20260901223733 49 310 1.0 3.0 0.00 0.00 0.00 90 1007.1
20260901222731 49 310 2.0 3.0 0.00 0.00 0.00 90 1007.3
20260901221732 49 310 1.0 3.0 0.00 0.00 0.00 89 1007.4
20260901220731 49 310 0.0 2.0 0.00 0.00 0.00 89 1007.4
20260901215731 50 310 1.0 3.0 0.00 0.00 0.00 89 1007.4
20260901214731 50 310 2.0 3.0 0.00 0.00 0.00 90 1007.4
20260901213730 50 310 2.0 3.0 0.00 0.00 0.00 89 1007.4
20260901212731 50 310 1.0 3.0 0.00 0.00 0.00 89 1007.4
20260901211729 50 310 2.0 3.0 0.00 0.00 0.00 89 1007.4
20260901210730 51 310 2.0 3.0 0.00 0.00 0.00 88 1007.3
20260901205731 51 314 2.0 3.0 0.00 0.00 0.00 88 1007.5
20260901205213 51 337 1.0 3.0 0.00 0.00 0.00 88 1007.4
20260901203730 51 337 1.0 3.0 0.00 0.00 0.00 87 1007.6